Location: Melbourne
(37.8120°S, 144.9677°E)
Time: 22:40:01
(UTC+10:00)

Daily predictions for brighter satellites

Satellite Brightness Start Highest point End
(mag) Time Altitude Azimuth Time Altitude Azimuth Time Altitude Azimuth
deb Kosmos-1763 4.4 17:35:34 10° S 17:39:22 48° ESE 17:43:06 10° NE
NOSS 3-1 (C) 3.6 17:35:45 10° SSW 17:42:04 50° SE 17:47:44 10° NE
Meteor 1-31 Rocket 4.4 17:41:27 10° S 17:45:01 35° WSW 17:48:32 10° NW
IRS-1A Rocket 4.5 17:39:49 10° SSE 17:45:45 63° ENE 17:51:33 10° N
Cosmos 1707 3.6 17:44:17 10° SSE 17:47:51 30° ESE 17:51:21 10° NE
Cosmos 2263 4.4 17:42:19 10° NNW 17:48:06 81° WSW 17:53:59 10° SSE
Nadezhda 4 Rocket 4.2 17:42:50 10° S 17:49:03 50° E 17:55:11 10° NNE
Cosmos 2369 Rocket 2.9 17:43:44 10° NW 17:49:14 56° WSW 17:54:49 10° SSE
Meteor 1-24 Rocket 4.5 17:48:06 10° S 17:53:36 34° ESE 17:58:56 10° NE
CSL-04 Rocket 3.9 17:51:20 10° S 17:56:48 78° WSW 18:02:06 10° NNW
MOS 1 Rocket 3.7 17:56:24 10° S 18:00:43 60° WSW 18:04:58 10° NNW
SPOT 3 Rocket 3.7 17:57:49 10° SSE 18:02:57 53° E 18:08:02 10° N
Cosmos 1833 4.4 17:58:02 10° SSW 18:03:45 54° ESE 18:09:24 10° NE
USA 215 3.4 17:58:56 10° SE 18:05:31 66° NE 18:12:03 10° NW
COSMO-SKYMED 1 3.8 18:02:10 10° N 18:06:23 47° W 18:10:39 10° SSW
Cosmos 1092 Rocket 4.1 18:03:39 10° S 18:09:56 54° E 18:16:04 10° NNE
Cosmos 2034 Rocket 4.5 18:06:30 10° NNW 18:12:37 64° W 18:18:50 10° S
PSLV R/B 3.6 18:12:16 10° W 18:15:40 58° S 18:17:42 22° ESE
Cosmos 968 Rocket 3.4 18:11:01 10° SSW 18:16:13 88° ESE 18:21:21 10° NNE
ERBS 3.0 18:17:08 10° SW 18:20:44 62° NW 18:24:17 10° NNE
USA 81 4.3 18:18:44 10° NNE 18:23:48 48° E 18:28:56 10° SSE
Cosmos 2026 Rocket 4.4 18:18:25 10° S 18:24:04 37° ESE 18:29:38 10° NE
SL-8 R/B 4.0 18:24:03 10° WNW 18:28:53 65° SSW 18:31:56 23° SE
CORIOLIS 4.3 18:26:30 10° SSE 18:31:50 53° E 18:37:07 10° N
Cosmos 1943 Rocket 2.7 18:27:43 10° NW 18:33:19 60° WSW 18:38:59 10° SSE
SMAP 3.0 18:28:38 10° SSE 18:33:20 65° E 18:37:58 10° N
BREEZE-M DEB (TANK) 3.4 18:25:37 10° NW 18:34:37 41° NNE 18:36:09 27° E
Cosmos 1766 Rocket 3.8 18:31:26 10° S 18:35:50 47° E 18:40:11 10° NNE
Meteor 1-29 4.2 18:32:40 10° N 18:35:57 43° W 18:39:16 10° SSW
Lacrosse 5 rocket 3.9 18:38:08 10° NE 18:38:12 10° NE 18:38:12 10° NE
Lacrosse 5 3.3 18:35:57 10° NNE 18:39:34 20° ENE 18:39:47 20° ENE
MOS 1 4.5 18:35:42 10° S 18:41:29 75° WSW 18:47:11 10° NNW
Cosmos 1570 Rocket 3.9 18:37:15 10° NNW 18:42:31 87° ENE 18:47:05 14° SSE
CZ-4 R/B 2.2 18:38:41 10° S 18:42:37 51° WSW 18:46:27 10° NNW
CZ-2C R/B 2.5 18:40:30 16° SSE 18:44:22 55° E 18:49:05 10° N
NOSS 3-1 (A) 3.5 18:39:56 10° SW 18:46:19 75° WNW 18:52:05 10° NNE
SJ-7 4.3 18:46:04 19° SSE 18:49:02 79° E 18:53:10 10° N
Cosmos 2208 Rocket 4.1 18:43:41 10° NNW 18:49:09 88° WSW 18:53:46 15° SSE
ATLAS 5 CENTAUR R/B 3.3 18:35:50 10° NNW 18:49:28 47° NE 18:51:20 34° E
Meteor 1-22 Rocket 4.5 18:45:35 10° NNW 18:51:27 75° W 18:57:11 10° S
Cosmos 405 Rocket 3.4 18:47:42 10° SSW 18:51:30 55° W 18:55:10 10° N
Cosmos 2219 3.1 18:46:36 10° SSW 18:52:21 70° ESE 18:58:04 10° NNE
Cosmos 1953 2.5 18:48:33 10° NNE 18:52:31 49° E 18:52:35 48° E
Cosmos-2242 3.0 18:48:28 10° N 18:52:40 56° E 18:53:42 43° SE
Orbus 7S? 4.1 18:53:06 10° WSW 18:55:47 44° NW 19:00:10 10° NNE
Cosmos 1766 3.7 18:54:32 10° NNW 18:58:26 62° W 19:01:20 17° S
Cosmos 1655 Rocket 3.9 18:53:50 10° S 19:00:14 71° E 19:06:29 10° NNE
Cosmos 1408 Rocket 3.6 18:56:09 10° S 19:00:42 81° W 19:05:11 10° N
MONITOR-E 4.4 19:01:36 69° N 19:01:36 69° N 19:04:31 10° NNW
Cosmos 1076 Rocket 3.7 18:59:23 10° SSW 19:03:41 72° W 19:07:56 10° N
Genesis I 3.0 18:59:55 10° NNW 19:03:45 90° WNW 19:03:56 80° SSE
Abrixas rocket 2.5 19:01:23 10° WSW 19:04:33 70° WSW 19:04:33 70° WSW
ATLAS 2AS CENTAUR R/B 2.5 19:00:57 10° SSW 19:06:59 57° SE 19:09:10 38° ENE
In-Cosmos 22 4.1 19:02:38 10° S 19:08:15 66° E 19:13:55 10° NNE
SAR-Lupe-1 4.3 19:09:50 66° NNW 19:09:50 66° NNW 19:12:58 10° NNW
Cosmos 2279 Rocket 3.9 19:05:11 10° N 19:11:24 80° E 19:17:31 11° S
Cosmos 1378 3.6 19:07:51 10° SSW 19:11:42 63° W 19:15:27 10° N
Atlas Centaur 2 2.8 19:10:02 10° NW 19:13:33 28° N 19:13:45 28° NNE
Milstar 3 Cent rocket 4.3 19:04:22 10° NW 19:14:57 28° N 19:18:25 21° NE
YAOGAN 1 4.1 19:11:15 10° S 19:15:15 34° WSW 19:19:12 10° NW
Cosmos 2278 4.4 19:10:37 10° N 19:14:48 37° NE 19:14:48 37° NE
IDEFIX/ARIANE 42P 2.5 19:13:38 27° SSE 19:16:38 87° WSW 19:21:55 10° NNW
SAR-Lupe-4 4.5 19:23:09 48° W 19:23:09 48° W 19:26:27 10° NNW
Cosmos 1818 3.5 19:19:01 10° NNW 19:24:24 79° WSW 19:25:23 60° S
ISS -0.4 19:23:45 10° NNW 19:23:59 11° NNW 19:23:59 11° NNW
Cosmos 1428 Rocket 4.3 19:22:03 10° S 19:28:17 79° E 19:34:31 10° N
Cosmos 2227 Rocket 4.1 19:32:13 10° S 19:33:34 17° S 19:33:34 17° S
USA 215 4.2 19:46:10 31° S 19:48:14 38° SSW 19:54:13 10° W
MSX 4.2 19:57:58 59° SW 19:58:23 60° WSW 20:04:02 10° NNW
Lacrosse 5 rocket 4.3 20:13:26 10° NW 20:14:00 13° NW 20:14:00 13° NW
ATLAS CENTAUR R/B 4.1 19:55:44 10° NW 20:19:39 90° SW 20:20:43 76° SE
Lacrosse 5 3.9 20:17:04 10° NW 20:19:01 23° WNW 20:19:01 23° WNW
ATLAS 2AS CENTAUR R/B 4.5 20:52:40 10° WSW 20:56:45 23° WNW 20:56:45 23° WNW
